This is the latest recevied weather packets stored in our database for station/object PA3DZX-13. If no packets are shown the sender has not sent any weather packets the latest 10 day(s).
| Time | Temp. | Humidity | Pressure | Rain* | Wind** | Luminosity | Snow |
|---|---|---|---|---|---|---|---|
| 1777964059 | 7.78° C | 96% | 1011.9 hPa | 0 mm | - | - | - |
| 1777963159 | 7.78° C | 97% | 1011.8 hPa | 0 mm | - | - | - |
| 1777962260 | 7.78° C | 97% | 1011.8 hPa | 0 mm | - | - | - |
| 1777961359 | 6.67° C | 97% | 1011.7 hPa | 0 mm | - | - | - |
| 1777960458 | 6.67° C | 98% | 1011.7 hPa | 0 mm | - | - | - |
| 1777959557 | 7.78° C | 97% | 1011.6 hPa | 0 mm | - | - | - |
| 1777958657 | 7.78° C | 97% | 1011.6 hPa | 0 mm | - | - | - |
| 1777957757 | 7.78° C | 97% | 1011.6 hPa | 0 mm | - | - | - |
| 1777956855 | 7.78° C | 97% | 1011.6 hPa | 0.25 mm | - | - | - |
| 1777955955 | 7.78° C | 97% | 1011.5 hPa | 0.51 mm | - | - | - |
| 1777955054 | 7.78° C | 97% | 1011.5 hPa | 1.52 mm | - | - | - |
| 1777954154 | 7.78° C | 97% | 1011.5 hPa | 1.52 mm | - | - | - |
| 1777953253 | 7.78° C | 98% | 1011.6 hPa | 1.52 mm | - | - | - |
| 1777952352 | 7.78° C | 97% | 1011.8 hPa | 2.54 mm | - | - | - |
| 1777951452 | 7.78° C | 98% | 1011.7 hPa | 2.03 mm | - | - | - |
| 1777950552 | 8.89° C | 98% | 1011.6 hPa | 3.05 mm | - | - | - |
| 1777949652 | 8.89° C | 97% | 1011.6 hPa | 2.79 mm | - | - | - |
| 1777948751 | 10° C | 99% | 1011.7 hPa | 1.78 mm | - | - | - |
| 1777947852 | 10° C | 99% | 1011.7 hPa | 1.52 mm | - | - | - |
| 1777946951 | 10° C | 99% | 1011.7 hPa | 2.79 mm | - | - | - |
| 1777946051 | 10.56° C | 99% | 1011.7 hPa | 2.79 mm | - | - | - |
| 1777945150 | 10.56° C | 99% | 1011.8 hPa | 1.02 mm | - | - | - |
| 1777944249 | 10.56° C | 99% | 1011.8 hPa | 1.02 mm | - | - | - |
| 1777943349 | 10.56° C | 99% | 1011.9 hPa | 0.76 mm | - | - | - |
| 1777942450 | 10.56° C | 99% | 1011.9 hPa | 0.51 mm | - | - | - |
* Rain latest hour (hover to see other rain measurements)
** Current wind speed in m/s (hover to see current wind gust speed)